Starlink 11678

operational
NORAD ID: 64326 Int'l Des: 2025-124 Owner: SPXS Country: US Constellation: starlink
LEOCIRCULAR

Über Starlink 11678

Beschreibung wird geladen...

Live-Position

3D-Globus wird geladen...

Nächste Überflüge

Höhenverlauf

Altitude vs Time

uPlot chart will show altitude changes over time

Zweizeiliger Elementsatz

1 64326U 25124K 25308.05492235 .00255239 00000-0 19193-2 0 9994
2 64326 43.0021 66.6471 0001444 309.3619 50.7121 15.70998929 23074
Epoch: 4. Nov. 2025 • Age: 8 hours

Aktueller Status

Höhe 356.7 km
Geschwindigkeit 7.70 km/s
Subsatellitenpunkt 27.77°N, 23.63°E
Startdatum 10. Juni 2025
Alter 0.3 years
Typ internet

Technische Details

Klassifizierung Payload
Masse 960.00 kg
Trockenmasse 910.00 kg
Gesamtmasse 960.00 kg
Länge 0.30 m
Durchmesser 4.10 m
Spannweite 29.00 m
Form Box + pan
Hersteller SPXS
Bus-Typ Starlink V2MD
Phasenstatus In Orbit
Besitzer/Staat SPXS/US

Große Konstellationen

Loading constellations...